Location: Echo Hill Outdoor School
(39.3621°N, 76.1137°W)
Time: 07:44:03
(UTC-04:00)

Envisat - Visible Passes

Search period start: 20 June 2018 00:00
Search period end: 30 June 2018 00:00
Orbit: 764 x 766 km, 98.2° (Epoch: 20 June)

Date Brightness Start Highest point End Pass type
(mag) Time Alt. Az. Time Alt. Az. Time Alt. Az.
20 Jun 5.2 21:21:06 10° SSW 21:25:06 23° W 21:29:07 10° NW visible
22 Jun 5.7 21:48:42 10° WSW 21:50:56 13° W 21:53:10 10° WNW visible
23 Jun 4.9 21:09:28 10° SSW 21:13:52 29° W 21:18:17 10° NW visible
25 Jun 5.6 21:36:28 10° SW 21:39:39 17° W 21:42:51 10° NW visible
28 Jun 5.4 21:24:35 10° SW 21:28:23 21° W 21:32:13 10° NW visible
